Theta_e
315 316 316 317 318 318 319 320 322 323 324 325 326 326 327 327 327 327 327 327 326 326 326 325 325 325 325 325 324 324 324 324 323 323 322 322 322 322 322 322 321 321 321 321 321 321 320 320 320 320 320 320 320 319 319 319 319 318 318 318 318 318 318 317 317 318 318 318 318 318 319 319 319 319 319 319 319 319 319 319 318 318 317 317 318
315 316 316 316 317 317 318 319 320 321 323 324 325 326 326 326 327 326 326 327 326 326 326 326 325 325 325 325 324 324 324 324 324 323 323 322 322 322 322 322 322 321 321 321 321 321 321 320 320 320 320 320 320 320 320 320 319 319 319 319 318 318 318 317 317 317 317 318 318 318 318 319 319 319 319 319 319 319 319 319 319 318 317 317 317
315 315 315 316 316 317 317 318 319 320 321 322 323 324 325 325 326 326 326 326 326 326 326 326 326 325 325 325 324 324 324 324 324 323 323 323 322 322 322 322 322 321 321 321 321 321 321 321 321 321 321 320 320 320 320 320 320 320 319 319 319 318 319 318 318 317 317 317 318 318 318 319 319 319 319 319 319 319 319 319 319 318 318 317 316
314 315 315 315 316 317 317 317 318 319 319 321 322 323 324 324 325 325 326 326 326 326 326 326 326 325 325 324 324 324 324 324 324 323 323 323 323 323 323 322 322 322 321 321 321 321 321 321 321 321 321 321 320 320 320 320 320 320 320 319 319 319 319 319 318 318 318 318 318 318 319 319 319 319 319 319 319 319 319 319 319 318 318 317 317
313 313 314 315 315 316 317 317 318 318 319 319 320 321 322 323 323 324 325 325 325 325 326 325 325 325 325 324 324 324 324 324 323 323 323 323 323 323 323 322 322 322 322 322 321 321 321 321 321 321 321 321 320 320 320 320 320 320 319 319 319 319 319 319 318 318 318 318 318 318 319 319 319 319 320 319 319 319 318 318 318 318 318 317 317
311 311 312 314 315 315 316 317 317 318 318 319 319 320 321 321 322 323 323 324 325 325 325 325 325 325 325 325 324 324 324 324 324 323 323 323 323 323 322 322 322 322 322 321 322 321 321 321 321 321 321 321 320 320 320 320 320 319 319 319 319 319 319 319 318 318 318 318 318 318 318 319 319 319 319 319 319 318 318 318 318 318 318 317 317
311 311 310 311 313 313 314 315 316 316 317 318 318 319 319 320 321 322 323 323 324 324 324 325 325 325 325 325 324 324 324 324 323 323 323 323 322 322 322 322 322 322 322 321 322 321 321 321 321 321 321 321 320 320 320 320 320 320 319 319 319 319 319 319 318 318 318 317 317 318 318 318 319 319 319 319 318 317 317 317 315 316 317 317 317
311 311 310 309 310 310 311 312 312 313 314 315 316 316 317 317 318 319 321 322 323 323 324 324 324 325 325 324 324 324 324 324 323 323 323 323 322 322 322 322 322 321 321 321 321 321 321 321 321 321 321 321 321 320 320 320 320 320 319 319 319 319 318 318 318 318 317 317 317 317 317 317 318 318 318 317 315 315 316 316 314 315 316 316 316
310 311 310 309 309 309 309 309 310 310 310 311 312 313 314 315 315 316 317 319 321 322 323 324 324 324 324 324 324 324 323 323 323 323 323 322 322 322 322 322 322 321 321 321 321 321 321 321 321 321 321 321 321 321 321 320 320 320 319 319 319 318 318 318 318 317 317 317 317 317 316 316 316 316 316 315 314 315 316 315 313 314 315 315 315
310 310 310 309 309 309 309 309 309 309 309 309 309 310 310 311 312 313 314 315 317 318 320 322 323 323 323 323 323 323 323 323 323 323 323 323 322 322 322 321 321 321 321 320 320 320 320 321 321 321 321 321 321 321 321 320 320 320 320 320 319 318 318 317 317 317 316 316 316 316 316 315 316 316 315 316 316 316 315 314 313 313 312 312 312
309 310 310 310 309 309 309 309 309 309 309 310 310 310 310 310 310 311 311 312 313 315 317 319 320 321 322 322 322 322 322 323 323 323 323 322 322 322 322 321 321 321 320 320 320 320 320 320 321 321 321 321 321 321 321 321 320 320 320 320 320 319 319 318 317 317 316 316 316 316 315 315 316 316 316 316 317 315 314 314 313 311 309 308 309
308 309 309 309 309 309 309 308 309 309 310 311 312 312 312 313 313 313 312 313 313 314 315 316 318 319 320 320 320 321 322 322 323 323 322 322 322 322 321 321 321 320 320 320 320 320 320 320 320 320 321 321 321 321 320 321 321 320 320 320 320 320 320 319 318 317 317 316 315 315 315 316 316 316 316 316 316 315 315 314 313 311 309 308 308
307 307 307 307 307 307 307 307 308 308 309 310 311 313 314 315 315 315 315 315 315 314 314 314 314 315 316 317 318 319 320 321 321 321 321 321 321 321 321 320 320 320 320 320 320 320 320 320 320 320 320 320 320 320 320 320 320 320 320 320 320 320 320 319 319 319 318 317 316 315 316 316 316 316 316 316 316 315 314 313 312 312 310 309 310
306 305 305 305 305 305 306 306 307 307 307 308 309 310 312 313 314 315 316 316 315 314 314 313 313 314 314 315 316 317 318 319 319 319 319 319 319 320 320 320 319 319 319 320 320 320 320 320 319 319 320 320 320 320 320 319 319 319 319 319 319 320 320 319 319 319 319 318 317 316 317 317 316 316 317 316 316 315 314 313 313 312 311 311 313
304 303 303 302 302 303 304 305 306 306 307 307 307 307 308 310 311 312 313 313 313 313 313 313 314 315 315 315 316 316 316 317 317 317 317 318 318 318 318 318 318 318 318 319 319 319 319 319 319 319 319 319 319 319 318 319 318 318 317 317 318 318 319 319 320 320 320 319 317 317 317 317 317 317 316 316 316 316 316 315 315 314 313 312 312
302 301 301 301 301 302 303 304 305 306 306 306 306 306 307 307 308 308 309 310 311 311 312 313 313 314 314 314 314 314 314 314 314 314 315 316 317 317 317 316 316 316 316 316 316 316 317 317 317 316 317 316 317 316 316 317 316 316 316 316 316 317 317 317 318 318 318 318 317 316 316 316 316 316 316 316 315 316 316 315 314 313 311 309 308
300 300 299 300 300 300 301 303 304 305 305 305 305 306 306 306 306 306 306 307 308 309 309 310 310 311 311 311 311 311 311 311 311 311 312 313 314 314 315 315 315 315 315 314 314 314 315 315 315 315 315 314 314 314 313 314 313 313 314 314 314 314 315 315 315 315 315 315 315 315 314 314 314 314 314 314 314 314 313 311 311 310 309 308 308
298 298 298 298 298 299 299 300 302 303 303 304 304 304 304 304 305 305 305 305 305 305 306 307 307 307 308 308 308 308 308 309 309 309 310 310 310 310 311 311 312 312 312 311 311 311 311 311 311 311 311 311 311 310 310 310 310 310 310 309 309 310 311 311 311 311 311 311 311 311 311 311 311 311 312 312 312 312 311 309 309 309 308 307 308
295 296 296 297 297 297 298 299 299 300 301 301 301 302 302 302 302 303 303 303 303 303 303 303 303 304 304 304 304 305 305 305 305 305 306 306 306 306 307 307 308 308 308 307 307 307 308 308 308 307 307 307 307 307 306 306 306 306 306 305 305 305 306 307 308 308 308 308 308 308 308 309 309 309 309 310 310 311 311 310 310 308 307 307 306
293 294 294 295 296 297 297 297 298 298 299 299 299 299 300 300 300 300 301 301 301 301 300 300 300 300 299 299 300 300 300 300 300 301 301 301 301 302 302 303 303 303 302 302 302 303 304 304 303 303 302 302 301 301 301 301 301 302 302 302 302 302 303 304 304 305 305 305 305 305 305 306 306 306 307 307 307 308 309 309 309 308 307 306 306
292 292 293 294 295 295 296 296 296 297 297 297 298 298 298 298 299 299 299 299 299 298 298 297 297 296 296 296 296 297 297 297 298 298 298 298 299 299 299 299 299 297 297 297 297 298 298 297 297 297 296 296 296 296 296 297 298 298 299 300 300 300 301 301 301 302 302 302 302 302 303 303 303 304 304 304 305 305 306 306 307 307 307 306 305
292 292 292 293 293 294 294 295 295 295 295 296 296 296 296 297 297 297 297 297 297 296 296 296 295 295 295 295 295 295 295 296 296 296 296 296 297 297 298 298 297 296 296 296 296 297 297 296 296 296 295 294 294 295 295 296 296 297 297 298 298 299 299 299 299 299 300 300 300 300 301 301 301 302 302 303 303 304 304 304 305 306 307 307 306
291 292 292 292 292 293 293 293 294 294 295 295 295 295 295 295 296 296 296 296 295 295 295 295 295 295 295 295 295 295 294 294 294 295 295 295 296 296 296 297 297 296 296 297 297 297 297 297 297 296 296 296 296 296 296 297 297 297 297 297 298 298 298 298 298 298 298 298 299 298 299 299 300 301 301 301 302 302 303 303 304 304 305 306 306
291 291 291 291 291 291 292 292 293 293 294 295 295 294 294 294 294 294 294 294 294 294 294 294 294 294 294 294 294 294 293 293 293 293 294 294 294 295 295 295 296 296 296 296 297 297 297 297 297 297 296 296 296 296 297 297 297 297 297 296 296 296 296 296 296 296 297 297 297 297 298 298 299 300 300 301 301 301 301 301 302 302 303 304 304
291 291 291 291 291 291 291 291 292 292 293 293 293 293 293 293 292 292 292 292 292 292 292 293 293 293 293 293 294 293 292 292 292 293 293 293 294 294 294 294 295 295 295 295 295 295 295 295 295 295 296 295 295 295 296 296 296 295 295 294 293 293 294 293 293 294 294 295 296 296 297 297 298 299 299 299 299 300 300 300 301 301 302 302 303
290 290 290 290 290 290 290 290 290 290 291 292 292 292 292 291 291 291 291 291 291 292 292 292 292 292 292 292 293 293 292 291 291 292 292 292 292 292 293 293 294 294 294 294 294 294 294 295 294 294 295 295 294 294 294 294 294 294 294 293 293 292 292 292 292 293 293 294 294 295 295 296 296 297 297 297 298 298 299 299 300 300 300 301 300
289 289 288 288 288 288 288 288 289 289 289 290 291 291 291 291 290 290 290 291 291 291 291 291 291 291 291 291 291 291 291 290 290 290 290 290 290 290 290 291 292 293 294 294 294 294 295 295 295 295 295 295 294 294 294 294 294 294 294 294 293 293 293 293 293 293 293 293 293 293 294 294 294 295 295 296 297 297 298 298 299 299 299 299 297
288 288 287 287 287 287 287 287 287 288 288 288 289 290 290 290 290 289 289 290 290 291 290 290 290 289 290 290 290 290 290 290 289 289 290 289 288 288 288 289 290 291 292 293 294 294 294 294 295 295 295 295 294 294 294 294 294 294 294 293 293 293 293 293 293 293 293 293 293 293 293 293 294 294 294 295 296 296 297 297 298 298 298 297 295
287 287 286 286 286 286 286 287 287 287 287 288 288 288 288 289 288 288 289 289 290 290 290 289 288 288 288 288 289 289 289 289 289 289 289 289 288 287 287 288 289 290 291 292 293 293 294 294 294 294 294 294 294 293 293 293 293 293 293 293 293 293 293 293 293 293 293 293 293 293 293 293 293 294 294 294 295 295 296 296 296 296 296 295 294
287 286 285 285 284 285 285 286 286 287 287 287 287 288 288 288 287 287 288 289 289 289 288 287 287 287 287 287 287 288 288 288 288 288 288 288 287 287 287 288 289 290 291 292 292 292 292 293 292 292 292 292 292 292 292 292 292 292 292 292 292 292 292 292 292 292 292 292 293 293 293 293 293 293 294 294 294 294 295 295 295 295 295 294 293
285 284 284 283 283 283 283 284 284 285 285 285 285 286 287 287 287 287 287 287 288 287 287 286 286 286 286 286 286 287 287 287 287 287 287 286 286 287 288 288 289 290 291 291 292 292 291 291 291 291 291 291 291 291 291 291 291 291 291 291 291 291 292 292 292 292 292 292 292 292 292 293 293 293 293 293 293 294 294 294 295 294 294 293 293
283 282 282 282 281 281 281 282 282 283 283 283 283 284 284 285 287 287 286 286 286 286 285 285 285 285 285 285 285 285 285 285 285 285 285 285 286 287 287 287 288 289 289 290 290 290 290 290 290 290 290 290 290 290 290 290 290 290 290 291 291 291 291 291 291 291 291 291 292 292 292 292 292 292 292 293 293 293 293 293 293 293 293 292 292
280 280 280 279 279 280 280 280 280 281 281 282 282 283 283 283 284 285 285 284 285 285 284 284 283 283 284 284 284 283 283 283 283 283 284 284 285 285 286 286 287 287 287 288 288 289 289 289 289 289 289 289 289 289 289 289 289 289 289 290 290 290 290 290 290 290 290 291 291 291 291 292 292 292 292 292 292 292 293 293 293 292 292 291 291
278 278 277 278 278 278 278 279 279 279 280 280 281 281 282 282 282 283 283 283 283 283 283 282 281 282 282 282 282 282 281 281 281 282 283 283 283 284 284 285 285 285 285 286 287 287 287 287 287 288 288 287 288 288 288 288 288 288 288 289 289 289 289 289 289 290 290 290 290 291 291 291 291 291 292 292 292 292 292 292 292 291 291 290 290
276 276 276 276 276 277 277 277 277 278 278 279 279 279 279 280 281 281 281 281 282 282 281 280 280 280 280 280 280 280 280 280 280 281 281 281 282 282 282 283 284 284 284 285 285 286 286 286 286 286 286 286 286 287 287 287 287 287 288 288 288 288 288 288 288 289 289 289 289 290 290 290 291 291 291 291 292 292 292 292 292 291 291 291 290
274 274 274 274 275 275 275 275 275 276 276 277 277 277 277 278 279 279 279 280 280 280 279 279 279 278 279 279 279 279 279 279 280 280 280 280 281 281 281 282 282 283 283 283 284 284 284 285 285 285 285 285 285 285 285 285 286 286 286 286 287 287 287 288 288 288 288 288 289 289 290 290 290 290 291 291 291 291 292 292 292 292 291 291 291
272 272 273 273 274 274 274 274 274 274 275 275 275 275 276 276 277 278 278 278 278 278 278 278 278 278 278 278 278 278 278 278 279 279 279 280 280 280 280 281 281 281 281 282 282 282 283 283 284 284 284 284 283 283 284 284 284 284 285 285 285 285 285 285 285 286 287 288 288 289 289 289 290 290 290 291 291 291 291 291 291 292 292 291 291
271 271 272 272 273 273 273 272 273 273 273 274 274 274 275 276 276 276 276 276 277 277 277 277 277 277 278 278 277 277 276 277 278 278 279 279 279 279 279 280 280 280 281 281 281 281 282 282 282 282 282 283 283 283 283 283 284 284 284 284 284 284 284 284 285 285 286 287 287 288 288 288 289 289 290 290 290 291 291 291 291 291 291 291 290
270 271 271 271 272 271 271 271 272 272 272 273 273 274 274 275 275 275 275 276 276 277 277 277 277 277 277 277 276 275 276 276 277 277 278 278 278 278 278 278 278 278 278 278 279 279 279 280 281 281 281 281 281 281 281 282 282 282 283 283 283 283 284 284 284 284 285 285 286 286 287 287 288 288 289 289 290 290 290 291 291 291 291 291 291
268 269 270 270 269 270 270 271 271 271 272 272 273 273 274 274 274 274 275 275 276 276 276 276 276 276 276 275 275 275 275 276 276 276 276 276 277 277 277 277 276 276 276 276 277 277 277 278 278 278 278 277 277 278 278 279 280 281 281 282 283 283 284 284 284 284 285 285 285 286 286 286 287 288 288 289 289 290 290 290 290 291 291 291 291
267 267 268 268 268 269 269 270 270 270 271 271 272 272 273 273 273 273 274 275 275 275 275 275 275 274 274 274 274 274 275 275 275 275 275 276 276 276 275 275 274 274 273 273 274 274 274 274 274 274 275 275 276 276 277 278 278 279 280 280 281 282 282 283 283 284 284 285 285 285 285 285 285 285 285 286 286 287 289 290 290 290 290 290 291
266 266 266 266 267 268 268 269 269 270 270 271 271 272 272 272 272 272 273 273 274 274 274 274 273 273 273 272 272 273 273 273 273 274 274 274 273 272 272 271 270 269 269 270 270 270 271 271 271 272 273 274 274 275 275 276 276 276 277 278 278 279 280 281 281 282 282 283 283 284 284 284 283 283 283 284 285 286 287 288 289 290 290 290 290
264 265 265 266 267 267 268 268 269 269 270 270 270 271 271 271 271 272 272 273 273 273 272 272 272 271 271 270 270 270 271 271 271 271 271 270 270 270 269 268 267 267 267 267 268 268 268 269 269 270 270 271 271 271 271 272 273 274 275 275 276 277 278 278 279 279 280 280 281 281 282 282 282 282 283 284 285 285 286 287 288 289 289 289 290
264 265 266 266 267 267 268 268 268 269 269 269 270 270 270 270 270 271 271 271 271 271 270 270 270 269 269 268 268 268 268 269 269 269 268 268 268 268 267 266 266 265 266 266 266 266 267 267 268 268 268 268 268 268 269 269 270 271 272 272 273 273 274 274 275 275 276 277 278 278 279 280 280 280 281 282 283 284 284 285 286 287 288 288 289
265 265 266 266 267 267 267 268 268 268 268 269 269 269 269 269 269 269 269 269 269 269 268 268 268 268 267 267 267 267 267 267 267 267 267 267 267 266 265 265 265 264 264 265 265 265 265 266 266 266 266 266 266 266 267 267 268 268 268 268 269 270 270 271 271 272 272 273 274 274 275 276 277 278 279 280 280 281 282 282 283 285 286 287 288
265 265 266 266 266 266 267 267 267 267 268 268 268 268 268 268 268 268 268 268 268 267 267 266 266 266 266 266 266 266 266 266 266 266 266 265 265 264 264 264 264 264 264 264 264 264 264 265 265 265 265 265 265 265 265 266 266 266 266 267 267 268 268 269 269 270 270 270 271 271 272 273 274 275 276 276 277 278 279 280 281 282 284 285 286
265 265 265 265 266 266 266 266 266 266 266 267 267 267 267 266 266 266 266 266 266 266 265 265 264 264 265 265 265 265 265 265 265 265 265 264 264 263 263 263 263 263 263 264 264 264 264 264 264 264 264 264 265 265 265 265 266 266 266 267 267 268 268 268 268 268 268 269 269 270 270 271 272 272 273 274 275 276 277 278 279 280 282 283 284
265 265 265 265 265 265 265 265 265 265 265 265 265 265 265 265 265 265 265 264 264 264 264 263 263 263 263 264 264 264 264 264 264 263 263 263 263 262 262 262 262 262 263 263 264 264 265 265 265 264 264 264 264 264 265 265 266 266 267 267 268 268 268 268 267 267 268 268 268 269 269 270 271 272 272 273 274 275 276 278 279 280 281 282 283
264 264 264 264 264 263 263 264 264 263 263 263 263 263 263 263 263 263 263 263 263 263 262 262 262 262 262 262 263 263 263 263 263 262 262 262 262 261 261 261 262 262 262 263 264 264 265 265 265 265 264 264 264 264 265 265 266 266 267 267 268 267 267 267 267 267 267 267 268 268 269 270 271 271 272 273 274 274 275 277 278 279 280 281 282
264 264 263 263 263 262 262 263 263 262 262 262 262 262 262 262 262 262 262 262 262 262 261 261 261 261 261 261 261 261 261 262 262 262 261 261 261 261 261 261 261 262 262 263 264 264 264 265 265 265 265 265 264 265 265 265 266 267 267 267 267 267 267 266 267 268 268 268 268 268 269 269 270 271 272 273 273 274 275 276 277 278 280 281 282
264 264 263 263 262 262 262 262 262 262 262 261 261 261 261 261 261 261 261 261 261 261 261 261 261 261 261 261 261 261 261 261 261 261 261 261 261 261 261 261 261 262 262 263 264 264 265 265 265 265 265 265 265 265 265 265 266 267 267 267 267 267 267 267 268 269 269 269 269 269 269 270 271 272 273 273 274 274 275 276 277 278 279 280 281
Wind_Speed
29 31 34 35 36 37 37 37 38 39 41 41 41 43 43 42 42 42 41 40 39 39 39 39 39 39 39 40 40 40 40 39 39 39 39 39 40 41 41 39 38 39 39 39 38 37 36 35 35 36 36 33 32 32 32 33 33 33 33 33 32 32 31 26 15 14 25 33 31 31 33 31 30 31 31 29 28 27 26 26 26 26 27 29 29
28 29 31 32 34 35 35 36 36 37 38 39 40 42 42 42 42 40 40 40 39 38 39 39 39 39 39 40 40 40 40 40 39 39 39 39 40 40 40 39 38 38 38 38 38 36 35 34 35 35 35 34 33 32 33 33 32 32 33 33 33 33 32 30 23 14 17 27 30 29 31 31 31 32 31 30 30 30 29 28 28 27 25 27 31
26 27 28 30 32 33 33 33 34 35 36 37 39 41 42 42 41 39 40 40 39 39 39 39 39 38 38 39 39 39 40 40 40 39 39 39 40 41 40 39 38 38 38 38 38 36 34 34 35 35 34 33 33 33 34 34 33 34 35 34 34 34 34 34 29 20 16 22 28 29 28 29 32 34 33 32 32 30 29 28 27 26 24 25 28
24 24 25 27 28 29 29 29 30 32 34 36 37 39 40 40 39 38 39 39 38 38 38 38 38 37 38 38 38 39 39 39 39 39 39 40 40 41 40 39 39 39 39 39 37 35 34 34 34 34 33 33 33 33 34 34 35 35 34 34 34 35 36 35 33 29 23 20 24 28 28 28 32 34 33 32 32 30 29 28 27 26 25 25 26
21 21 22 23 25 25 25 25 27 29 32 34 36 37 37 36 36 36 37 37 37 37 36 36 37 37 38 38 38 39 39 39 39 39 39 40 40 40 39 39 39 39 39 39 37 36 35 34 34 33 33 33 32 32 33 34 35 34 33 33 34 34 34 34 34 33 29 23 23 27 28 28 30 32 31 30 29 28 27 27 27 26 26 27 26
18 19 19 20 22 21 20 21 23 25 28 30 32 32 33 33 33 34 35 35 36 35 35 36 37 38 38 38 39 39 39 39 39 38 39 39 39 39 39 38 39 38 38 37 37 36 35 35 35 34 34 34 33 32 33 34 34 33 33 33 33 34 34 33 32 32 30 28 26 25 26 28 29 28 29 29 28 27 26 27 28 27 27 27 27
17 16 16 18 19 19 18 18 19 21 24 26 27 28 28 29 30 32 32 33 34 35 35 36 37 38 38 38 38 39 38 38 38 38 38 38 38 38 38 38 37 37 36 36 36 37 37 36 35 35 35 36 36 34 33 33 33 33 34 33 33 33 33 31 31 30 29 28 26 24 25 27 29 29 28 28 27 26 26 25 24 24 26 27 28
16 15 14 15 16 16 15 15 17 18 20 22 23 24 25 26 27 28 29 30 33 33 34 35 35 36 37 37 38 38 37 37 37 37 37 36 36 36 37 37 37 36 36 36 36 37 37 37 36 36 37 37 38 37 35 34 33 33 33 33 33 32 32 30 29 28 27 25 23 23 24 24 26 28 26 22 20 22 24 25 23 24 27 29 30
15 14 12 12 12 12 12 12 13 15 16 18 19 20 21 22 23 24 26 28 30 31 32 32 33 34 35 36 36 36 36 37 37 36 36 36 35 36 36 36 36 36 36 35 36 36 36 37 37 37 37 38 39 39 38 37 35 34 33 33 33 32 31 29 27 26 25 22 20 20 19 19 21 23 22 21 22 24 26 26 25 27 28 31 32
16 14 11 10 10 9 9 9 10 11 12 13 14 15 16 18 19 21 23 25 26 27 29 30 31 32 33 33 34 34 35 36 36 36 36 35 35 35 35 35 35 35 35 34 34 34 35 36 37 37 38 38 39 39 40 39 39 38 36 34 33 31 29 27 26 26 23 20 19 19 15 15 20 23 24 27 30 29 26 24 25 25 24 24 27
17 14 11 9 8 8 7 8 8 8 9 10 11 11 12 13 15 17 19 21 23 24 26 27 29 30 30 30 31 32 33 34 34 34 34 34 34 34 34 34 33 34 34 33 33 33 33 35 36 36 37 37 38 38 39 39 40 40 40 38 37 36 32 29 26 26 25 21 21 21 17 16 21 25 26 29 30 28 26 25 25 23 19 15 13
15 13 9 7 7 7 7 7 7 7 8 9 9 9 10 11 12 13 15 17 19 21 23 25 26 26 27 27 28 29 30 31 31 32 33 33 34 34 33 32 31 32 32 32 32 32 32 33 34 35 35 36 36 37 37 38 39 40 40 40 41 40 39 36 32 29 27 23 22 23 22 21 22 24 25 26 27 27 27 27 26 24 22 17 12
11 10 7 5 5 5 5 5 6 6 7 8 9 9 9 10 10 11 12 14 16 18 19 21 22 22 23 23 25 26 28 28 28 29 29 30 30 31 32 32 30 30 31 31 31 31 31 32 32 32 33 33 33 34 34 35 35 36 37 39 41 41 42 42 40 37 34 29 25 25 26 25 23 23 24 25 26 26 26 26 27 27 25 23 24
9 8 6 4 3 2 3 3 3 4 5 6 7 8 9 9 9 9 10 11 12 14 16 17 18 19 19 20 21 22 23 24 24 24 24 25 26 27 29 30 30 30 30 30 30 31 31 31 30 31 31 31 31 31 32 32 31 31 33 35 38 38 38 38 39 41 41 39 35 32 30 28 28 29 28 28 27 27 27 27 29 29 30 32 35
8 6 4 3 2 1 1 1 1 2 3 4 5 6 8 8 7 7 7 8 9 10 11 12 13 14 14 15 15 16 17 17 18 19 19 20 21 22 24 26 28 28 28 28 27 27 27 28 28 27 26 26 25 25 26 27 28 28 28 30 31 32 33 34 36 39 42 43 43 41 37 35 34 32 29 27 27 28 29 31 31 30 31 33 33
7 5 4 3 3 2 2 2 2 2 2 2 3 5 5 5 4 5 5 5 6 7 8 9 10 10 10 11 11 11 11 11 11 11 12 13 15 17 19 21 22 23 23 22 21 20 19 19 19 18 17 16 16 15 15 16 19 21 22 24 25 26 28 30 31 33 34 37 39 39 39 38 37 35 32 29 29 30 30 31 31 28 26 23 22
5 5 4 3 3 2 1 2 3 3 2 2 2 2 2 2 2 3 3 4 4 5 6 6 6 6 6 6 7 7 7 7 7 7 7 8 9 11 13 14 16 17 18 18 17 16 15 15 15 14 14 13 13 13 12 12 14 16 18 20 21 23 24 25 26 27 28 30 31 32 33 33 33 33 33 32 32 30 27 25 24 22 19 14 12
4 3 3 4 3 2 2 2 3 4 4 4 3 3 3 3 2 2 0 2 4 5 5 5 5 5 5 5 5 6 7 8 8 9 9 9 9 9 10 10 12 13 13 13 13 13 13 14 14 14 14 15 15 15 15 15 16 16 17 17 18 20 23 23 24 24 25 26 27 28 28 28 28 29 30 30 31 30 29 27 23 19 17 13 11
5 4 3 3 3 3 3 2 3 4 5 5 5 5 5 6 6 5 5 4 3 2 1 2 2 3 3 4 4 5 6 7 8 9 10 10 11 11 11 12 13 14 14 14 14 14 15 16 17 17 18 19 19 19 19 19 19 18 18 17 17 19 20 19 19 19 20 22 23 24 24 24 24 25 26 26 26 27 29 32 29 24 21 19 16
6 5 5 5 5 6 6 6 6 6 7 7 7 7 7 8 8 8 8 8 8 7 7 7 6 6 5 4 3 3 2 2 3 4 4 5 6 7 8 10 11 13 13 13 15 16 17 18 18 18 17 16 17 17 17 17 17 17 17 17 18 18 18 17 17 18 19 21 22 22 23 22 22 23 24 24 24 24 26 28 29 28 27 25 21
6 7 7 8 9 10 11 11 11 11 11 11 11 11 11 10 10 10 10 10 10 11 12 12 13 13 12 11 11 11 10 9 7 6 5 4 4 4 4 4 5 6 7 8 10 12 13 13 12 11 10 10 10 10 11 12 12 14 15 16 16 17 16 17 18 19 20 22 23 24 24 25 25 25 25 24 24 25 25 26 27 27 29 29 25
7 9 10 11 12 13 14 14 14 14 14 14 16 17 16 15 15 15 14 15 17 18 18 18 18 19 18 18 18 19 19 17 15 13 11 9 8 6 6 5 4 4 5 7 9 10 10 10 10 9 8 9 9 9 10 10 11 13 15 16 17 17 18 19 19 19 20 21 22 22 23 23 23 23 23 22 22 22 23 24 24 25 28 31 31
8 10 12 14 15 15 16 16 16 17 16 17 19 20 20 20 19 19 18 19 21 21 20 20 21 21 21 21 21 22 23 23 22 20 18 15 13 11 9 7 6 6 6 8 10 10 10 10 10 10 9 10 10 10 11 11 11 13 14 15 17 19 20 21 20 20 20 19 19 20 20 19 20 20 19 19 19 19 20 21 22 24 26 29 31
9 11 13 14 15 16 17 18 18 19 18 19 21 21 21 22 22 21 20 20 21 20 19 19 20 20 20 20 21 22 23 24 23 22 21 19 17 15 13 11 10 9 9 10 11 12 12 11 11 11 11 11 11 11 12 12 12 12 12 13 14 16 17 19 19 19 18 18 17 18 18 18 18 18 18 18 18 19 20 21 21 22 24 26 28
10 12 13 14 14 15 17 18 19 19 19 20 21 21 22 23 22 21 21 21 20 18 17 17 18 17 17 17 17 18 20 22 23 22 22 20 19 18 16 14 13 12 12 12 12 12 13 13 13 13 12 12 12 12 13 12 12 12 12 12 12 12 12 13 14 15 15 16 16 17 17 17 17 17 17 17 17 18 19 20 21 22 23 25 27
12 13 13 14 13 14 16 17 18 19 19 20 20 20 20 21 21 20 20 19 18 17 16 16 16 16 15 15 14 14 17 20 22 22 21 21 20 20 18 16 14 13 13 13 13 14 14 14 15 15 15 15 14 14 14 13 12 12 12 11 11 11 10 11 11 12 14 15 15 16 17 18 17 18 18 17 17 18 18 19 20 21 22 23 24
12 13 13 13 13 14 15 15 16 18 19 20 19 18 18 18 19 19 18 16 15 15 15 14 14 13 12 12 12 12 14 18 21 22 22 22 21 21 20 19 17 14 13 13 14 14 15 15 15 15 16 16 15 14 14 14 14 13 13 13 12 12 11 11 12 13 15 16 17 18 19 18 18 18 18 18 18 18 17 17 19 20 21 21 21
11 11 11 11 12 13 14 15 16 17 18 18 18 18 16 16 17 18 16 15 14 14 14 15 14 13 12 12 12 12 13 18 21 22 21 21 21 21 21 21 20 18 16 15 16 16 16 16 16 16 17 18 18 18 18 18 17 17 16 15 15 14 13 13 13 14 16 17 18 19 19 19 18 17 17 17 18 17 16 16 18 20 19 18 15
10 10 10 10 11 12 13 15 16 16 16 16 16 16 15 15 16 17 16 16 15 14 15 16 16 14 14 15 14 12 14 17 18 17 15 16 18 19 19 19 19 18 16 15 15 16 16 17 17 18 19 20 20 20 20 20 20 20 19 18 17 17 16 15 15 16 17 17 18 18 19 19 18 18 17 17 17 17 16 16 18 18 18 16 15
9 10 11 12 12 13 13 14 15 15 15 14 13 13 12 12 13 15 16 15 15 15 15 15 14 14 14 14 13 12 12 13 13 12 12 13 14 14 14 14 14 14 13 12 11 12 13 14 14 15 16 16 16 17 18 19 19 20 19 19 18 18 17 16 16 17 17 17 18 18 18 18 18 18 17 17 17 17 16 16 17 17 17 16 15
9 10 10 11 13 13 13 14 14 13 13 14 13 12 10 9 9 11 12 12 12 12 13 13 13 14 14 14 12 11 11 11 11 12 12 12 12 13 12 12 12 12 10 9 9 10 11 11 12 13 13 13 13 15 17 17 17 18 19 19 19 18 19 19 19 19 19 19 19 19 18 18 18 18 18 18 18 17 16 16 17 18 19 18 16
9 9 10 12 13 14 14 14 14 14 14 14 14 14 13 11 8 8 10 10 9 10 11 12 13 14 14 14 14 13 13 14 14 14 14 14 14 14 13 13 13 12 11 11 10 11 11 11 11 13 14 14 14 16 17 17 17 18 18 19 19 19 19 20 21 21 20 20 20 19 19 19 18 18 18 18 18 18 17 16 17 19 19 19 18
11 11 12 13 13 14 14 14 14 13 13 13 12 12 12 11 10 10 12 10 8 8 10 12 13 13 14 14 14 15 16 17 16 16 16 16 16 16 15 13 12 13 14 14 13 12 12 12 12 13 14 15 15 16 17 16 17 18 17 17 18 19 20 21 21 20 19 19 19 19 19 19 19 19 19 19 18 18 17 17 18 18 18 17 17
11 10 11 11 11 11 12 12 11 10 10 10 10 10 10 10 9 10 12 11 10 10 12 14 15 14 14 14 15 16 17 17 17 17 17 16 16 16 14 12 13 15 16 16 14 13 13 12 12 13 14 15 15 16 16 17 17 18 18 18 18 20 21 22 21 20 20 20 20 20 20 20 20 20 20 19 19 18 18 17 17 17 16 16 16
9 9 9 9 9 9 10 10 10 10 9 9 10 9 9 9 8 9 9 9 9 10 12 15 16 15 14 15 17 18 19 19 18 17 17 18 18 17 16 15 16 17 18 17 16 14 14 13 13 14 15 15 16 17 17 18 18 18 18 19 20 20 21 21 20 20 21 21 20 20 21 20 20 20 20 20 19 18 17 18 17 17 17 17 16
10 9 9 9 9 9 9 10 10 10 9 10 10 9 9 9 8 8 8 8 9 9 11 14 16 16 16 17 18 19 19 18 17 16 16 17 17 18 17 15 15 14 15 15 15 14 14 14 14 15 15 16 17 18 18 19 19 19 19 20 21 20 20 19 20 20 21 21 20 20 20 20 20 20 20 20 19 19 19 19 19 19 19 19 18
10 9 9 10 9 8 9 10 10 10 10 10 11 11 10 10 9 9 10 10 10 10 12 14 16 17 18 20 21 21 19 17 14 14 15 16 16 17 16 14 12 12 12 12 13 12 12 12 12 14 15 16 16 17 17 17 17 18 18 18 18 19 20 21 22 22 22 21 21 21 21 21 20 20 21 21 20 19 19 20 20 20 21 21 21
8 8 8 9 8 7 8 9 9 9 10 11 12 12 12 11 11 11 11 11 11 11 12 13 14 15 17 18 20 20 19 16 15 15 16 17 18 17 16 15 14 13 13 14 14 14 13 14 15 16 16 17 17 17 17 18 18 18 18 18 18 20 21 20 19 19 20 20 20 21 21 21 21 21 21 21 21 20 20 20 20 20 20 20 19
8 7 7 8 7 7 8 8 9 10 12 13 14 14 13 12 11 11 11 11 11 11 11 12 12 13 15 16 18 19 17 15 15 15 16 16 17 17 16 16 16 15 15 16 17 17 17 17 17 17 17 19 20 21 21 21 22 22 22 22 22 22 21 19 19 21 21 20 21 21 21 22 23 22 22 22 22 21 21 21 20 20 20 19 18
9 7 7 7 7 7 8 9 11 13 14 14 14 14 13 11 11 11 11 11 10 10 10 11 11 13 14 16 18 18 15 14 14 14 14 14 15 16 17 17 17 16 16 17 18 19 20 19 19 19 20 21 22 23 23 24 24 24 25 25 24 23 21 21 23 24 24 23 23 22 22 22 23 23 22 22 22 22 22 22 21 21 21 21 21
7 6 6 7 7 8 10 11 12 13 14 13 12 12 11 10 10 10 10 9 9 9 9 10 11 12 13 15 16 15 13 12 13 13 13 14 15 16 16 17 18 18 18 19 19 20 20 21 21 22 23 24 24 24 24 24 24 25 24 24 23 23 22 23 23 24 24 25 24 22 21 21 23 24 26 26 27 27 26 24 23 22 21 21 22
6 5 6 7 8 9 10 11 11 11 12 12 11 10 10 10 10 10 9 9 8 8 9 10 11 11 13 15 15 13 12 13 13 13 13 14 14 15 16 17 19 19 19 19 19 19 19 21 22 22 22 23 23 24 23 23 24 24 24 23 23 23 23 23 22 23 24 25 25 24 23 24 25 26 28 28 28 28 27 26 25 23 21 20 20
5 5 6 7 8 9 9 9 9 10 11 11 10 9 9 9 9 9 9 9 8 8 9 10 11 11 12 14 14 13 13 14 14 13 14 14 14 15 17 18 20 20 20 19 19 19 20 21 21 21 21 22 23 23 23 24 24 25 25 24 23 23 23 23 23 24 25 27 27 26 26 26 26 26 26 27 27 26 26 26 25 23 21 21 21
5 5 6 7 8 9 8 9 9 10 10 9 9 9 9 9 10 10 10 9 9 10 10 10 11 11 12 14 15 15 15 15 14 14 14 15 15 17 19 20 21 22 21 21 21 21 20 21 21 21 22 23 23 24 24 24 24 24 24 24 24 23 23 24 25 26 27 28 28 27 26 26 26 26 26 26 26 25 25 25 25 24 23 23 23
4 5 6 7 8 8 9 10 10 10 9 10 10 10 10 10 11 11 10 10 9 10 10 11 11 11 12 14 15 15 15 15 15 14 14 15 16 17 18 20 20 20 20 20 20 20 19 19 20 20 20 21 22 22 23 22 22 22 23 23 23 23 23 25 26 26 26 26 27 27 26 26 26 26 26 25 24 24 24 25 26 25 24 24 24
3 4 5 6 7 8 9 10 10 9 10 10 10 10 10 10 10 10 9 9 9 10 11 12 11 11 12 13 13 13 13 14 14 13 13 13 14 16 17 17 17 17 17 17 17 17 16 16 17 17 18 19 20 21 22 23 23 22 23 23 24 25 25 26 26 26 26 27 27 26 26 26 26 25 25 25 25 26 26 28 28 27 26 26 25
2 3 4 6 6 7 8 9 9 9 9 8 8 8 7 7 8 8 8 8 8 8 9 10 10 10 10 11 11 11 11 11 11 12 12 12 14 15 16 16 16 16 16 16 16 16 17 17 18 18 18 19 20 21 22 23 23 23 23 23 25 26 27 28 29 29 30 29 28 27 27 27 27 26 26 26 25 26 27 28 28 28 28 27 27
3 3 4 4 5 6 7 7 8 8 7 7 6 6 5 5 6 6 6 6 7 7 7 8 8 8 8 8 8 8 8 9 9 10 11 12 14 15 15 16 16 16 16 17 18 18 19 20 21 20 20 20 21 22 23 24 23 23 24 24 26 27 28 29 30 30 30 30 30 29 29 29 28 27 26 25 25 25 25 26 25 26 28 29 29
5 5 5 5 6 7 7 7 7 7 6 6 6 5 5 5 5 5 4 4 5 5 5 6 6 6 7 7 7 7 7 7 8 9 11 12 14 14 15 15 16 16 16 17 18 19 21 22 22 22 22 22 22 23 24 24 25 25 26 27 29 30 30 30 30 31 31 32 32 32 31 30 29 29 27 26 26 26 26 26 25 25 26 27 27
6 6 6 7 7 7 7 7 6 6 6 6 6 6 5 5 4 4 3 4 4 4 5 5 5 6 6 6 7 7 7 7 8 9 11 13 14 14 15 16 16 17 17 18 19 20 21 22 23 23 23 23 23 24 25 26 26 27 27 29 31 32 32 32 32 32 32 33 34 34 33 32 32 31 30 29 28 26 26 26 26 25 24 23 23
7 7 7 7 7 6 6 6 6 5 5 5 5 5 4 4 4 3 3 3 4 4 5 5 6 6 6 7 7 7 7 7 8 9 11 13 14 15 16 17 17 18 19 20 21 22 22 23 24 24 24 25 25 26 27 27 27 26 28 30 33 34 34 34 34 33 32 32 32 32 32 31 31 31 32 32 31 29 27 25 25 25 25 25 26
Wind_Direction
278 271 267 263 260 257 255 252 249 246 244 243 241 243 244 244 244 245 245 244 243 242 242 240 240 238 237 237 237 237 237 236 236 235 233 233 234 236 237 237 235 236 238 240 239 239 239 239 240 242 242 240 238 237 237 237 236 234 232 233 233 232 232 233 239 255 258 260 263 266 270 272 271 270 272 272 271 271 270 272 276 277 279 283 282
288 280 274 267 262 260 257 254 251 248 246 244 243 243 244 244 245 244 244 245 243 242 241 241 240 239 237 237 236 236 236 236 236 234 232 233 234 236 237 236 236 236 237 239 239 239 239 239 240 242 242 240 238 237 238 237 235 234 232 231 232 233 231 233 239 247 255 259 260 263 265 266 267 269 269 269 271 272 269 267 271 273 275 279 279
296 287 278 272 267 264 261 257 253 250 247 246 245 245 245 245 244 243 244 245 244 242 242 241 240 239 237 237 236 236 236 236 235 234 233 233 234 235 236 235 235 236 236 238 240 239 238 238 239 241 241 240 238 237 238 238 236 234 234 232 232 235 234 233 237 242 250 255 257 259 260 260 263 267 269 269 271 270 266 265 268 269 272 279 279
302 294 285 279 274 269 264 260 256 252 250 249 248 248 248 247 246 244 245 245 244 244 243 241 241 239 238 237 236 237 237 236 235 234 233 234 235 236 236 236 236 236 237 239 240 239 238 237 239 240 240 239 238 237 237 238 237 236 235 234 234 236 237 236 236 240 246 252 253 255 256 257 261 266 269 268 267 264 262 263 265 265 269 277 277
303 297 292 286 280 274 269 265 259 256 254 254 253 253 252 252 250 248 247 246 246 245 244 243 241 239 238 238 237 237 237 237 236 235 234 235 236 237 237 237 237 237 238 239 240 240 239 238 239 239 239 239 239 238 238 238 239 237 236 235 236 238 239 239 238 239 243 247 250 253 254 256 259 263 264 263 262 260 259 261 262 263 268 269 265
304 296 291 288 282 277 273 268 263 260 258 258 258 257 257 256 255 253 251 250 249 247 246 244 242 241 240 239 239 239 239 238 237 236 236 236 236 237 238 238 239 239 239 240 241 241 241 241 241 239 238 239 240 239 239 240 240 238 237 236 236 238 240 240 240 240 242 245 249 251 252 253 256 259 260 259 258 256 256 261 261 260 262 261 256
309 299 288 283 280 278 277 274 269 267 265 264 263 263 262 261 259 258 256 253 252 249 247 245 244 243 242 241 240 240 240 240 239 238 238 237 237 237 238 239 240 240 241 241 241 242 242 242 241 240 239 240 241 241 240 240 240 239 238 237 237 237 239 240 240 240 241 244 246 246 247 249 252 255 258 259 256 253 252 256 257 256 255 254 255
311 306 294 285 284 285 285 282 278 277 275 273 271 269 268 267 264 262 259 257 255 252 250 248 247 246 245 243 243 243 241 240 240 239 239 238 237 238 238 239 240 240 241 241 241 242 242 243 242 242 241 241 243 243 242 241 240 240 240 239 238 237 238 240 240 239 241 243 245 245 245 246 247 250 254 252 246 246 248 248 248 251 254 256 259
304 304 300 295 294 294 291 287 283 281 279 276 274 273 272 272 269 266 263 261 259 257 255 252 250 248 247 246 245 244 243 242 241 241 240 239 238 238 239 239 240 240 241 241 241 241 242 243 243 244 244 244 246 247 246 244 242 241 241 241 239 238 238 239 238 238 240 242 244 244 244 242 240 242 245 241 240 248 253 250 246 249 255 259 262
295 292 291 292 293 292 289 286 281 278 275 271 268 268 269 270 270 269 267 265 263 261 258 255 252 249 248 247 246 245 244 245 244 244 244 242 241 240 240 240 240 240 240 240 240 240 241 243 244 246 247 247 248 249 250 249 246 245 245 244 242 239 238 238 237 237 238 240 241 239 240 241 237 235 238 243 248 251 250 245 245 250 254 257 261
291 286 283 282 283 286 285 281 277 272 268 264 260 258 260 264 268 270 271 269 267 264 261 257 254 251 249 249 248 247 247 248 248 248 248 246 245 242 241 241 240 240 240 239 239 240 241 243 244 246 247 248 249 250 251 251 250 250 249 249 247 245 241 238 237 237 237 239 241 239 237 241 241 237 239 245 249 249 246 244 245 248 246 248 261
291 288 287 284 282 284 283 281 278 272 267 264 258 253 253 256 262 268 271 272 271 267 264 261 258 256 253 252 251 251 252 253 253 253 252 250 248 246 243 242 241 240 240 240 241 241 242 243 244 245 246 247 248 249 250 251 252 252 252 252 251 250 247 244 242 240 239 240 242 240 239 244 247 242 240 243 247 248 249 247 245 244 243 242 246
281 281 282 280 277 279 281 281 280 275 271 270 268 264 259 254 254 261 266 270 272 271 269 267 264 261 258 255 254 254 255 255 255 255 254 253 251 249 246 244 242 241 241 241 242 242 242 243 244 245 246 248 249 249 249 251 253 254 254 253 252 252 251 250 249 248 246 246 247 246 244 246 249 248 248 249 248 246 246 246 246 245 243 243 248
264 264 267 271 271 274 281 281 274 272 273 272 271 270 267 263 258 260 264 267 271 275 276 275 272 268 265 262 260 259 260 260 259 257 257 257 255 253 250 248 245 244 243 243 243 244 245 245 245 246 247 248 248 249 249 249 251 253 253 252 252 253 253 255 256 255 253 250 250 252 251 250 253 257 257 254 249 246 247 249 249 247 247 253 258
252 254 258 272 289 305 338 337 304 286 281 277 275 270 267 265 261 260 264 268 272 277 279 279 277 276 273 269 266 265 265 264 263 261 259 257 255 254 253 251 248 246 244 244 244 246 247 248 248 249 251 251 251 251 252 252 252 252 251 251 253 254 254 256 260 260 257 254 252 253 254 254 257 259 258 256 255 257 259 259 258 257 258 263 266
260 267 271 286 306 334 21 38 44 24 344 309 292 281 276 271 258 248 249 256 265 270 272 273 271 269 268 266 263 262 259 257 257 256 255 252 249 248 249 251 250 249 247 245 244 243 244 245 246 247 249 250 251 251 253 255 256 255 254 255 257 257 257 260 263 263 263 262 261 259 259 260 261 262 262 263 265 267 268 265 261 257 258 264 267
282 298 304 310 318 337 15 58 73 73 64 38 358 330 320 308 272 242 228 221 232 246 254 258 257 252 251 250 245 238 230 226 224 225 229 234 237 240 243 244 246 247 247 246 245 243 241 240 241 242 243 244 245 246 245 248 252 256 258 261 262 261 262 264 266 267 267 268 268 267 267 267 268 269 268 267 267 267 265 262 256 249 249 255 262
315 324 334 342 348 0 27 75 90 97 100 90 75 63 52 47 49 47 121 190 207 221 230 237 244 248 249 250 248 243 241 243 244 245 247 245 242 240 240 239 240 242 245 246 246 245 244 244 245 247 249 251 252 255 255 255 257 259 262 266 267 265 265 267 269 271 271 271 271 272 274 275 275 275 274 272 271 268 262 259 256 248 243 247 258
5 10 23 28 29 33 44 67 90 101 99 91 85 82 76 69 64 62 65 73 86 107 140 196 233 260 268 268 268 264 264 268 267 264 266 265 262 257 254 253 253 252 254 256 256 255 256 258 260 262 264 265 265 267 267 265 265 265 266 270 270 268 270 272 273 276 278 278 279 279 280 280 278 277 276 273 272 269 264 263 259 249 245 250 255
28 41 58 69 76 76 71 70 78 88 90 86 83 82 80 78 74 71 71 72 73 73 72 73 73 65 54 46 41 33 11 337 307 290 285 283 281 275 269 267 265 263 265 266 266 267 267 268 270 270 270 270 269 268 267 265 266 267 266 266 267 269 273 273 272 275 278 279 280 281 281 282 279 278 278 276 274 272 271 270 265 255 250 252 252
62 67 72 77 84 86 83 80 79 83 87 90 89 86 84 86 87 85 86 88 85 81 79 80 79 72 66 64 61 56 53 48 40 28 14 3 352 335 319 308 293 284 286 284 281 282 282 282 284 283 281 281 280 277 273 269 268 269 268 268 270 273 276 276 274 276 278 279 281 282 283 283 281 279 278 276 275 274 273 274 272 265 257 253 251
86 84 78 76 78 81 81 82 83 85 88 89 88 85 84 86 90 92 95 95 89 84 83 85 82 76 72 69 65 61 57 53 48 42 36 30 24 20 12 2 348 328 313 305 302 303 304 306 308 308 305 303 299 295 290 281 273 269 267 267 269 271 274 277 279 280 280 281 282 282 281 280 278 277 275 273 273 274 272 271 270 270 267 262 257
85 88 82 75 72 73 75 77 79 82 85 85 85 83 82 82 82 83 84 84 80 77 76 77 77 72 68 66 63 58 53 48 44 39 34 31 28 24 20 12 1 347 328 320 320 321 321 321 321 318 314 309 303 299 296 291 285 279 273 268 267 267 270 273 275 276 277 278 278 276 275 275 274 273 273 274 277 279 277 276 274 273 273 272 267
68 77 78 74 70 69 70 71 73 75 79 84 85 83 80 78 74 71 70 71 70 67 65 66 68 65 61 61 61 55 47 43 41 37 32 30 28 23 20 14 5 354 343 336 331 328 327 325 322 317 312 308 306 304 302 298 296 294 290 283 277 273 271 272 272 273 272 270 268 267 269 271 271 272 275 281 286 288 284 282 280 277 274 274 273
63 63 65 66 67 67 67 68 69 70 74 78 80 78 76 74 70 64 63 63 62 61 60 59 62 60 56 56 60 56 46 40 40 37 32 30 28 25 22 17 10 1 352 347 341 335 330 325 320 316 313 310 309 307 307 306 306 306 307 306 301 294 288 283 280 275 269 266 266 267 269 272 273 276 283 287 288 288 286 284 281 278 276 273 271
71 65 61 59 61 65 66 65 65 67 69 71 73 73 72 71 68 64 62 61 60 60 59 59 61 60 54 50 52 53 44 37 36 36 33 30 27 24 21 19 14 7 358 351 347 341 336 331 327 324 321 320 319 317 317 319 322 323 324 324 321 316 310 303 295 286 279 278 279 279 279 282 283 283 286 286 283 283 286 286 282 278 276 273 270
75 72 67 62 59 59 61 61 61 63 63 64 66 68 69 70 67 63 61 61 60 59 58 57 58 58 55 49 48 50 41 32 28 27 27 25 20 16 14 13 11 9 3 355 350 346 343 341 337 335 333 334 335 335 336 337 338 338 337 335 332 327 321 314 305 296 292 293 294 293 294 296 295 291 289 286 283 283 284 281 277 274 274 272 269
63 63 62 61 59 58 59 58 56 57 58 59 59 58 59 64 67 64 60 60 62 63 61 56 51 49 48 42 38 39 34 27 23 20 19 17 12 7 5 3 2 2 360 354 349 348 349 349 350 351 351 350 349 348 349 348 346 344 342 340 336 332 327 322 313 306 304 303 302 303 305 305 303 301 299 293 288 288 287 280 272 270 269 266 261
49 41 37 36 39 46 52 53 53 52 51 54 58 59 58 59 63 65 65 63 63 63 60 53 45 41 41 37 31 28 22 18 16 13 9 6 2 360 358 356 354 353 351 349 347 347 350 354 357 357 355 352 350 348 347 346 344 341 341 340 338 335 331 325 317 312 312 309 304 302 304 305 304 304 303 296 292 292 288 279 272 268 264 258 255
48 39 33 26 25 30 37 43 46 46 43 42 46 56 64 64 62 64 68 68 64 60 56 50 41 35 35 34 33 33 24 14 9 3 358 355 354 353 351 349 349 347 346 346 347 348 352 355 355 354 351 347 343 340 339 339 337 335 335 335 335 334 331 326 320 317 315 311 305 302 302 303 303 303 302 296 293 294 288 278 272 268 262 257 258
45 35 29 24 22 24 29 34 37 39 39 35 31 32 39 45 50 56 62 66 63 54 49 44 36 33 33 31 30 31 24 12 4 357 353 354 357 357 354 353 359 2 1 1 1 360 358 355 351 349 349 345 340 337 336 335 333 331 331 331 332 333 331 327 325 323 319 313 308 305 303 300 297 297 296 291 288 286 281 274 267 260 257 258 260
45 30 21 17 16 18 21 26 29 29 31 30 28 24 21 15 11 18 31 45 52 47 40 33 28 29 33 30 25 22 15 5 359 358 359 360 1 0 358 2 10 16 19 21 19 12 5 360 354 351 349 346 343 341 338 336 334 333 331 329 330 331 329 327 326 324 318 313 308 304 301 299 296 293 291 287 284 280 273 267 260 255 254 255 256
43 32 22 16 13 11 14 18 21 22 22 21 22 22 21 15 2 354 1 15 29 34 32 27 23 27 29 22 15 13 8 2 2 5 6 3 360 356 357 3 12 17 21 25 22 14 8 4 359 354 351 347 343 341 340 337 335 333 330 328 326 327 327 327 326 324 318 314 310 305 301 299 298 295 292 288 283 278 272 266 259 253 251 251 252
38 32 25 19 14 10 10 11 13 16 18 18 18 17 19 17 9 358 357 2 8 13 16 18 21 26 25 13 7 8 7 6 10 11 8 6 3 359 0 9 16 18 22 26 23 13 6 2 357 353 350 345 341 340 338 336 335 333 330 329 328 328 329 329 328 325 322 319 316 311 308 305 301 297 294 292 287 281 276 270 262 253 248 248 251
26 24 23 22 20 13 7 8 11 12 13 17 18 17 15 15 17 16 10 3 2 5 8 10 15 21 22 13 8 9 9 9 12 11 9 9 8 8 13 19 18 15 17 19 15 9 4 359 354 351 347 344 342 340 337 334 333 331 329 329 328 327 327 327 325 323 321 318 314 311 308 305 301 297 293 290 287 283 278 275 269 260 253 251 252
14 17 18 19 19 13 4 6 12 14 13 15 14 13 18 22 25 25 21 17 15 12 8 6 8 14 20 17 11 9 8 7 8 10 11 12 13 17 23 23 16 12 13 12 8 5 1 355 351 347 344 343 342 339 336 333 332 330 329 328 327 325 325 325 324 321 318 313 310 309 306 303 301 299 295 290 286 283 280 278 275 268 261 257 256
10 15 17 15 16 12 4 5 13 17 18 18 16 16 23 27 25 26 27 26 21 15 10 8 8 8 11 12 9 5 3 3 6 12 13 14 18 22 25 21 13 9 9 5 0 356 350 347 347 344 340 336 333 329 327 326 325 324 323 323 323 324 323 322 321 319 315 312 310 309 307 304 302 299 295 290 286 283 281 279 278 275 269 264 259
14 24 25 18 14 9 4 9 18 23 24 26 26 26 26 24 24 27 26 20 17 15 13 13 10 6 5 7 6 3 1 4 10 13 14 16 18 19 18 15 11 7 3 359 356 352 347 345 345 340 334 330 328 327 326 325 323 322 320 319 320 319 317 315 316 316 313 311 310 308 306 304 302 299 294 290 288 287 284 281 278 276 273 268 260
15 30 31 19 10 10 12 18 28 30 28 28 28 27 25 23 24 23 16 11 13 14 10 7 8 8 9 8 5 1 1 6 10 10 10 12 13 12 13 12 9 7 4 1 357 354 348 343 342 342 342 341 340 337 334 331 329 327 324 321 319 316 314 314 316 315 312 308 308 308 306 302 298 294 289 284 283 284 284 283 280 276 274 270 263
9 24 25 15 13 20 27 33 36 33 28 26 26 25 25 24 21 14 7 6 9 9 7 8 12 12 10 8 5 2 2 5 6 5 6 6 6 9 13 12 8 5 3 358 355 352 348 344 345 347 346 343 339 336 332 330 329 326 324 321 319 317 317 317 315 312 309 305 303 305 306 306 306 304 299 293 288 284 281 280 279 277 276 275 271
7 17 15 15 26 36 39 40 38 35 33 31 27 23 22 21 19 13 10 11 13 13 13 14 14 12 8 7 7 7 7 6 4 4 5 6 7 11 13 10 7 5 1 356 354 351 348 346 345 343 341 340 338 336 334 333 333 331 329 329 328 325 324 323 320 317 315 312 309 308 308 311 314 314 310 305 303 299 293 286 280 275 273 273 272
5 16 24 34 46 49 46 43 43 43 42 37 30 26 27 27 25 18 14 14 15 15 13 11 13 14 12 10 12 16 17 13 9 10 12 13 12 13 10 6 3 1 357 355 352 349 347 346 344 342 342 341 340 338 337 336 336 334 332 330 329 327 324 321 320 320 320 318 314 312 311 310 310 309 306 303 301 298 295 291 287 281 275 272 271
14 35 50 57 59 58 54 50 48 46 41 36 34 33 30 26 22 17 13 13 16 18 18 15 14 15 14 14 18 23 23 19 18 18 17 13 11 8 3 359 357 357 356 355 353 352 350 348 346 345 344 342 341 341 340 337 336 334 332 329 327 326 324 323 323 324 323 321 317 314 312 310 308 306 305 303 301 298 296 293 291 287 283 282 280
30 47 60 64 64 63 60 53 49 45 42 41 43 41 32 28 28 27 25 25 28 29 26 19 15 14 14 17 21 23 23 21 20 18 15 11 8 3 359 357 357 357 357 356 357 357 355 352 349 346 345 345 345 344 342 340 338 335 333 331 329 327 325 324 324 323 321 318 316 314 312 310 308 305 302 301 301 301 301 299 296 292 288 283 277
32 47 59 62 63 62 59 54 53 54 54 54 51 47 43 42 41 37 33 32 32 30 25 19 17 17 16 15 17 19 19 17 16 13 10 8 3 358 355 356 357 358 358 359 1 2 359 355 351 347 344 343 344 343 342 340 337 335 334 333 329 326 324 322 322 321 319 316 313 312 310 308 306 303 301 300 298 297 296 294 294 294 293 289 282
36 51 56 56 60 63 62 60 62 65 66 63 55 49 48 48 45 40 35 33 32 30 24 20 19 18 16 14 14 13 12 10 8 5 3 0 355 351 352 353 354 356 359 2 3 1 358 353 350 347 344 342 343 343 343 343 341 340 339 338 335 331 329 326 323 320 317 314 311 308 306 304 301 298 298 297 295 293 289 287 286 287 288 289 289
76 69 60 59 66 72 71 70 71 72 73 71 62 53 52 52 48 44 39 36 35 30 22 19 19 18 15 12 10 7 5 2 360 358 355 351 348 348 349 351 352 355 1 5 5 3 1 360 357 353 350 349 348 347 347 348 348 346 344 343 342 338 333 328 324 321 319 316 312 306 303 300 297 295 293 291 290 288 285 283 283 282 281 281 283
120 106 87 80 85 87 87 87 85 82 84 87 81 72 72 74 66 56 48 46 45 34 20 18 20 18 12 8 3 360 358 355 353 353 352 348 348 350 352 353 354 356 0 5 7 8 8 7 5 2 358 356 354 352 351 351 350 349 348 346 343 337 332 329 328 326 323 320 316 311 306 300 295 292 291 288 287 286 283 281 280 279 278 279 280
137 133 121 109 102 99 100 103 99 95 99 108 109 104 100 96 90 79 67 62 58 38 19 17 20 17 11 4 355 349 350 351 351 352 351 350 351 354 356 358 359 0 1 3 6 9 11 10 9 8 5 1 359 357 355 354 354 353 351 345 340 337 336 335 332 329 326 324 320 316 310 303 296 292 290 286 284 283 281 281 281 279 277 278 277
131 128 125 120 114 111 113 114 111 108 109 111 113 114 111 104 101 98 86 74 59 35 20 22 25 21 12 1 353 350 353 352 350 349 350 352 355 358 360 1 2 3 3 4 7 9 10 10 10 10 9 6 4 1 359 358 358 355 349 342 342 345 345 343 338 336 335 332 327 322 316 310 303 298 294 290 286 282 279 279 280 279 277 276 275
121 121 122 123 123 125 124 118 111 110 108 101 104 116 117 105 97 98 95 76 47 25 21 27 28 22 13 6 1 359 356 352 351 352 353 355 358 360 1 1 2 2 3 6 9 11 11 12 13 12 11 9 6 3 0 360 358 352 346 344 349 352 352 348 344 343 342 338 334 331 327 320 311 305 300 297 292 287 281 279 279 279 277 277 277